Terug naar catalogus

STARLINK-3529

ActiefCommunicatieVLEO
NORAD 51724·PAYLOAD·🇺🇸 United States

Gelanceerd Feb 21, 2022 vanaf Cape Canaveral Space Force Station

Loading…

Volgende Passages (komende 24 uur)

TLE

VersSource: CelesTrak SupGP

Epoch: Sep 15, 2026, 01:12 UTC

1 51724C 22016L   26258.05048611 -.00017153  00000+0 -52069-3 0  2589
2 51724  53.1593 189.2156 0001321  88.7763 121.4570 15.33545586    11

Volg STARLINK-3529 in realtime met AllMySat

Download on the App Store